[[{"header":{"parameterUnit":"m.s-1","parameterCategory":1,"la1":30.2991,"la2":30.254,"lo1":-89.0895,"lo2":-89.0444,"dy":0.0017,"dx":0.0017,"nx":28,"ny":28,"refTime":"2025-04-14T03:00:00:Z","depth":0,"parameterNumber":2,"parameterNumberName":"U-component_of_WINDS"},"data":[0,0,0,0,0,0,0,0,0,0,0,0,0,0,0,0,0,0,0,0,0,0,0,0,0,0,0,0,0,0,0,0,0,0,0,0,0,0,0,0,0,0,0,0,0,0,0,0,0,0,0,0,0,0,0,0,0,0,2.9498,2.9499,0,2.9551,2.9551,2.9552,2.9544,2.9543,2.9542,2.9541,2.9595,2.9597,2.96,0,0,0,0,0,0,0,0,0,0,0,0,0,2.9389,2.9391,2.9498,2.9499,2.9499,2.9551,2.9551,2.9552,2.9544,2.9543,2.9542,2.9541,2.9594,2.9597,2.96,0,0,0,0,0,0,0,0,0,0,0,0,0,2.9439,2.9392,2.9498,2.9502,2.9502,2.9551,2.9551,2.9552,2.9544,2.9543,2.9542,2.954,2.9593,2.9597,2.96,2.9648,0,0,2.9611,2.9612,0,0,0,0,0,0,0,0,2.9436,2.9443,2.95,2.9501,2.9502,2.9539,2.9533,2.9584,2.9545,2.9528,2.9541,2.954,2.9578,2.9582,2.9595,2.965,2.9653,2.9611,2.9613,2.9614,2.9615,0,0,0,0,0,0,0,2.9432,2.944,2.9519,2.9501,2.9502,2.95,2.9506,2.9543,2.956,2.953,2.9529,2.9536,2.9578,2.9592,2.9596,2.9654,2.9611,2.9614,2.9616,2.9617,2.9749,2.9751,0,0,0,0,0,0,2.9428,2.9438,2.9517,2.952,2.9465,2.9503,2.9509,2.9529,2.9559,2.9563,2.9537,2.9535,2.9587,2.9592,2.9598,2.9655,2.9614,2.9618,2.9619,2.9748,2.9749,2.9751,0,0,0,0,0,0,2.9426,2.9435,2.9515,2.9479,2.9489,2.9506,2.9528,2.9531,2.9544,2.9565,2.9568,2.9548,2.9586,2.9593,2.9635,2.9657,2.9619,2.9622,2.9746,2.9748,2.975,2.9769,0,0,0,0,0,0,2.9423,2.9435,2.9453,2.9479,2.9491,2.9552,2.953,2.9533,2.955,2.9549,2.9576,2.9579,2.9585,2.963,2.9639,2.9661,2.9625,2.9744,2.9747,2.975,2.9767,2.9772,2.9776,0,0,0,0,0,2.9419,2.9457,2.9454,2.9464,2.9515,2.9553,2.9559,2.9566,2.9552,2.9571,2.9584,2.9578,2.9653,2.9635,2.9644,2.9667,2.9743,2.9746,2.9749,2.9765,2.9771,2.9776,0,0,0,0,0,0,2.9433,2.946,2.9458,2.9505,2.9527,2.9552,2.9575,2.9573,2.9598,2.9596,2.9603,2.9609,2.9651,2.9664,2.9642,2.9714,2.9696,2.9701,2.9704,2.9711,2.9715,2.9711,2.9628,0,0,0,0,0,2.9441,2.947,2.9493,2.9533,2.9544,2.9558,2.9575,2.9578,2.96,2.9609,2.9625,2.9647,2.9675,2.9694,2.9721,2.9769,2.9774,2.979,2.9794,2.9798,2.9802,2.9827,2.9834,2.9762,2.9762,2.9762,0,0,2.9459,2.9478,2.9496,2.9536,2.9553,2.9582,2.9565,2.9597,2.9619,2.9614,2.9654,2.9667,2.9691,2.9736,2.9757,2.9748,2.9823,2.9802,2.9805,2.9807,2.9831,2.9838,2.9844,2.9764,2.9764,2.9763,0,0,2.9507,2.9525,2.9559,2.9576,2.9602,2.9611,2.9619,2.9644,2.9652,2.9693,2.9689,2.9715,2.9764,2.9781,2.9796,2.985,2.9845,2.9858,2.9882,2.9907,2.9912,2.9917,2.9935,2.9941,2.9863,2.9863,2.9863,0,2.9526,2.957,2.9577,2.9609,2.9626,2.9623,2.9657,2.9674,2.9707,2.9719,2.9709,2.9769,2.9786,2.9834,2.9846,2.9859,2.9868,2.9855,2.9911,2.9916,2.9921,2.9937,2.9944,2.9864,2.9864,2.9864,2.9864,0,2.9592,2.9622,2.9647,2.9679,2.9699,2.9732,2.9743,2.9763,2.9764,2.9774,2.9814,2.9834,2.9864,2.9876,2.9878,2.9924,2.9918,2.9909,2.9891,2.9929,2.9945,2.9951,2.9866,2.9865,2.9865,2.9865,0,0,2.9649,2.9684,2.9693,2.9707,2.9735,2.9758,2.9791,2.9821,2.9836,2.986,2.9886,2.9927,2.9919,2.9937,2.994,2.9962,3.0001,2.995,2.9951,2.9958,3.0051,3.0056,3.0064,2.9998,3.0,3.0001,3.0048,0,2.9698,2.9756,2.9762,2.9813,2.9841,2.9838,2.9866,2.9886,2.9896,2.9921,2.9932,2.996,2.9948,2.9958,2.9979,2.9991,3.0019,2.9988,3.0022,3.0023,3.0015,3.0072,3.0078,3.0122,3.0055,3.0056,3.0057,0,2.9763,2.9788,2.9841,2.9864,2.9876,2.9902,2.9929,2.9953,2.9975,2.998,2.9999,3.0,3.0033,3.0013,3.0058,3.0037,3.0051,3.0059,3.0061,3.0063,3.0041,3.0075,3.0137,3.0143,3.0067,3.0066,3.0065,0,2.9798,2.9844,2.9882,2.9894,2.9923,2.994,2.9953,2.9974,2.9991,3.0014,3.0025,3.0053,3.0067,3.0088,3.0096,3.0081,3.014,3.0121,3.0144,3.0144,3.0156,3.0155,3.0219,3.0167,3.0167,3.0167,3.0167,0,2.9851,2.9884,2.9898,2.9921,2.9957,2.9964,3.0,3.0011,3.003,3.0055,3.0054,3.0077,3.0087,3.0111,3.0117,3.0153,3.016,3.0164,3.0165,3.0164,3.0163,3.0172,3.0169,3.0169,3.0168,3.0168,3.0168,0,2.9896,2.9907,2.9947,2.9971,2.9977,3.0003,3.0022,3.0044,3.0054,3.0085,3.0093,3.0107,3.0136,3.0146,3.0181,3.0185,3.0226,3.0225,3.0218,3.0218,3.024,3.0237,3.0311,3.0321,3.0264,3.0264,3.0265,0,2.9928,2.9953,2.9979,2.9996,3.0009,3.0036,3.0053,3.0061,3.0078,3.0105,3.0123,3.0152,3.0175,3.0221,3.0234,3.0261,3.026,3.0284,3.0264,3.0261,3.0258,3.0256,3.0258,3.0287,3.0288,3.0289,3.0289,0,2.9985,2.9989,3.0014,3.004,3.0061,3.0082,3.0103,3.0116,3.0127,3.0147,3.0176,3.0194,3.023,3.0257,3.0284,3.0297,3.0294,3.0295,3.0302,3.03,3.0294,3.0296,3.0227,3.0293,3.0293,3.0293,3.0292,3.0292,3.0023,3.0045,3.0066,3.0093,3.011,3.0129,3.015,3.0162,3.0187,3.0216,3.0219,3.025,3.0271,3.0306,3.032,3.0344,3.0337,3.0347,3.0349,3.0351,3.0352,3.0291,3.0349,3.0349,3.0349,3.0349,3.0349,0,3.0078,3.0092,3.0117,3.0146,3.0167,3.0163,3.0186,3.0204,3.0231,3.0251,3.0273,3.0306,3.0333,3.0348,3.0375,3.0391,3.039,3.0398,3.0396,3.0398,3.0357,3.0348,3.0397,3.0397,3.0397,3.0397,3.0397,3.0397,3.0109,3.0145,3.0151,3.0195,3.0208,3.0238,3.0251,3.0268,3.0284,3.0321,3.0343,3.0353,3.037,3.0398,3.0422,3.0426,3.0435,3.0443,3.0446,3.0407,3.0402,3.0397,3.0388,3.0445,3.0445,3.0485,3.0485,3.0485]},{"header":{"parameterUnit":"m.s-1","parameterCategory":1,"la1":30.2991,"la2":30.254,"lo1":-89.0895,"lo2":-89.0444,"dy":0.0017,"dx":0.0017,"nx":28,"ny":28,"refTime":"2025-04-14T03:00:00:Z","depth":0,"parameterNumber":3,"parameterNumberName":"V-component_of_WINDS"},"data":[0,0,0,0,0,0,0,0,0,0,0,0,0,0,0,0,0,0,0,0,0,0,0,0,0,0,0,0,0,0,0,0,0,0,0,0,0,0,0,0,0,0,0,0,0,0,0,0,0,0,0,0,0,0,0,0,0,0,4.249,4.249,0,4.2448,4.2448,4.2447,4.2403,4.2402,4.2401,4.2401,4.2354,4.2354,4.2353,0,0,0,0,0,0,0,0,0,0,0,0,0,4.253,4.253,4.249,4.249,4.2489,4.2448,4.2448,4.2447,4.2403,4.2402,4.2401,4.2401,4.2354,4.2354,4.2353,0,0,0,0,0,0,0,0,0,0,0,0,0,4.2503,4.253,4.249,4.2462,4.2459,4.2448,4.2447,4.2447,4.2403,4.2402,4.2401,4.24,4.2355,4.2354,4.2353,4.2365,0,0,4.235,4.2349,0,0,0,0,0,0,0,0,4.2505,4.2501,4.2467,4.2464,4.2461,4.243,4.2444,4.2419,4.2403,4.2424,4.2401,4.24,4.238,4.2377,4.2371,4.2363,4.2361,4.235,4.2349,4.2349,4.2348,0,0,0,0,0,0,0,4.2506,4.2503,4.2473,4.2467,4.2463,4.2451,4.2446,4.2439,4.2408,4.2422,4.2419,4.2415,4.2378,4.2372,4.2369,4.236,4.235,4.2349,4.2348,4.2348,4.236,4.2361,0,0,0,0,0,0,4.2513,4.2505,4.2475,4.2472,4.2481,4.2451,4.2446,4.2441,4.2408,4.2402,4.2416,4.2413,4.2374,4.2371,4.2368,4.2379,4.2349,4.2348,4.2347,4.2359,4.236,4.2361,0,0,0,0,0,0,4.2514,4.2511,4.2476,4.2488,4.2482,4.2451,4.2446,4.244,4.2434,4.2403,4.2396,4.2415,4.2373,4.2369,4.2366,4.2377,4.2347,4.2346,4.2358,4.2359,4.236,4.2404,0,0,0,0,0,0,4.2515,4.2511,4.2516,4.2488,4.2482,4.2477,4.2447,4.244,4.2433,4.2429,4.2401,4.2395,4.2372,4.2368,4.2365,4.2375,4.2345,4.2357,4.2358,4.236,4.2401,4.2406,4.2411,0,0,0,0,0,4.2517,4.2529,4.2517,4.2513,4.2488,4.2478,4.2474,4.2448,4.2434,4.2438,4.2418,4.2396,4.2377,4.2368,4.2364,4.2375,4.2356,4.2358,4.236,4.2399,4.2405,4.2411,0,0,0,0,0,0,4.2558,4.2525,4.2511,4.2515,4.2499,4.247,4.2475,4.2456,4.2443,4.244,4.2408,4.2402,4.2403,4.2388,4.2379,4.2385,4.2363,4.2365,4.2394,4.24,4.2405,4.2408,4.2345,0,0,0,0,0,4.2568,4.2564,4.2534,4.2541,4.2534,4.2506,4.25,4.2482,4.2465,4.2458,4.2437,4.242,4.241,4.2404,4.2393,4.2399,4.2392,4.2404,4.2409,4.2413,4.2415,4.2417,4.2422,4.2368,4.2368,4.2368,0,0,4.2588,4.2569,4.2568,4.2548,4.2534,4.253,4.25,4.2497,4.2493,4.2456,4.2453,4.2438,4.2416,4.2418,4.2418,4.2406,4.2428,4.2416,4.242,4.2419,4.2419,4.2425,4.2429,4.2369,4.2369,4.2369,0,0,4.2621,4.2607,4.2611,4.2598,4.2577,4.2559,4.256,4.2533,4.2522,4.2518,4.2491,4.2486,4.2469,4.2455,4.2446,4.2476,4.2455,4.2473,4.2498,4.2501,4.2505,4.2509,4.2519,4.2523,4.2475,4.2475,4.2475,0,4.2648,4.2641,4.2614,4.2613,4.2605,4.2573,4.2576,4.2565,4.2542,4.2537,4.2524,4.2504,4.2487,4.2485,4.2492,4.2486,4.2486,4.2476,4.2507,4.251,4.2513,4.2522,4.2526,4.2477,4.2477,4.2477,4.2476,0,4.2674,4.267,4.2675,4.2655,4.2648,4.2648,4.2622,4.2617,4.26,4.2583,4.2579,4.2558,4.2543,4.2541,4.2523,4.2537,4.253,4.2513,4.249,4.2521,4.2529,4.2533,4.248,4.248,4.2479,4.2478,0,0,4.2732,4.2698,4.27,4.2691,4.2667,4.2662,4.2662,4.2648,4.2645,4.263,4.2628,4.2615,4.2599,4.2589,4.257,4.2572,4.2596,4.2554,4.2553,4.2562,4.261,4.2623,4.2628,4.2583,4.2583,4.2584,4.2611,0,4.2761,4.2758,4.2735,4.2739,4.2734,4.2705,4.2704,4.2689,4.2673,4.2666,4.2647,4.2639,4.2619,4.2612,4.2613,4.2593,4.2605,4.2591,4.258,4.258,4.2586,4.2632,4.2646,4.2673,4.2615,4.2615,4.2615,0,4.2794,4.2783,4.2787,4.2763,4.276,4.276,4.2746,4.274,4.2722,4.271,4.2699,4.2678,4.2674,4.2654,4.2649,4.264,4.2634,4.2624,4.2624,4.2621,4.2599,4.263,4.2681,4.2685,4.262,4.262,4.262,0,4.2835,4.2821,4.2822,4.2814,4.2787,4.2788,4.2776,4.2757,4.2751,4.2738,4.2733,4.272,4.2712,4.2702,4.2678,4.2665,4.2675,4.2653,4.2665,4.2665,4.2667,4.2668,4.2717,4.2664,4.2664,4.2664,4.2664,0,4.287,4.2873,4.284,4.284,4.2843,4.2816,4.282,4.2805,4.2789,4.2785,4.2759,4.2756,4.2724,4.2717,4.2698,4.2696,4.2693,4.2683,4.2677,4.2685,4.2686,4.268,4.2678,4.2665,4.2665,4.2665,4.2665,0,4.2916,4.2894,4.2893,4.2867,4.2861,4.2864,4.2842,4.2841,4.2824,4.282,4.2817,4.2789,4.278,4.2755,4.2739,4.2726,4.273,4.272,4.2736,4.2733,4.2746,4.2745,4.2793,4.2798,4.2743,4.2743,4.2744,0,4.2939,4.2942,4.2917,4.2913,4.2903,4.2897,4.2891,4.2865,4.2859,4.2839,4.284,4.2829,4.2819,4.2805,4.2783,4.2771,4.276,4.2778,4.2758,4.2766,4.2761,4.2761,4.2761,4.2782,4.2783,4.2784,4.2784,0,4.2983,4.2972,4.2964,4.2953,4.2947,4.2936,4.2924,4.2922,4.2893,4.2887,4.2878,4.2871,4.2855,4.2844,4.2828,4.2815,4.2795,4.2791,4.2793,4.28,4.281,4.2805,4.2748,4.279,4.2789,4.2789,4.2788,4.2788,4.3018,4.3019,4.3002,4.2994,4.2983,4.2972,4.297,4.2954,4.2946,4.2932,4.2917,4.2909,4.2891,4.2869,4.2857,4.285,4.284,4.2843,4.2843,4.2844,4.2848,4.2812,4.2847,4.2847,4.2847,4.2847,4.2847,0,4.306,4.3048,4.3042,4.3026,4.302,4.3003,4.2989,4.2985,4.2979,4.2965,4.2956,4.2945,4.2935,4.2913,4.29,4.2899,4.2889,4.2897,4.2896,4.2894,4.2858,4.2858,4.2905,4.2905,4.2905,4.2905,4.2905,4.2905,4.3082,4.3082,4.307,4.3064,4.3052,4.3045,4.3039,4.3029,4.3017,4.3007,4.2999,4.2985,4.2968,4.2954,4.2943,4.2937,4.2933,4.2944,4.2934,4.2902,4.2896,4.2891,4.289,4.2943,4.2943,4.297,4.297,4.2971]}]]